Location: Kumla
(59.1265°N, 15.1401°E)
Time: 15:22:11
(UTC+01:00)

Transit 2A - All Passes

Search period start: 03 December 2023 00:00
Search period end: 13 December 2023 00:00
Orbit: 600 x 953 km, 66.7° (Epoch: 02 December)

Date Brightness Start Highest point End Pass type
(mag) Time Alt. Az. Time Alt. Az. Time Alt. Az.
03 Dec - 00:42:01 10° WNW 00:45:55 32° WSW 00:49:49 10° S night (unlit)
03 Dec - 15:30:29 10° SSE 15:34:11 21° ESE 15:37:41 10° ENE daylight
03 Dec - 17:11:53 10° SW 17:16:46 82° SE 17:21:18 10° NE visible
03 Dec - 18:55:47 10° W 19:00:13 40° NNW 19:04:25 10° NE visible
03 Dec - 20:40:09 10° WNW 20:44:13 31° N 20:48:10 10° ENE visible
03 Dec - 22:23:43 10° NW 22:28:05 54° NNE 22:32:21 10° ESE night (unlit)
04 Dec - 00:06:58 10° NW 00:11:07 43° SW 00:15:16 10° SSE night (unlit)
04 Dec - 14:56:31 10° SSE 14:59:28 16° ESE 15:02:18 10° ENE daylight
04 Dec - 16:37:01 10° SSW 16:41:51 64° SE 16:46:20 10° NE visible
04 Dec - 18:20:35 10° W 18:25:09 45° NNW 18:29:26 10° NE visible
04 Dec - 20:05:01 10° WNW 20:09:05 31° N 20:13:01 10° ENE visible
04 Dec - 21:48:44 10° NW 21:53:02 45° NNE 21:57:13 10° E visible
04 Dec - 23:31:57 10° NW 23:36:16 58° SW 23:40:33 10° SSE night (unlit)
05 Dec - 01:16:28 10° W 01:18:27 13° WSW 01:20:27 10° SW night (unlit)
05 Dec - 14:23:10 10° SE 14:24:48 12° ESE 14:26:24 10° E daylight
05 Dec - 16:02:16 10° SSW 16:06:59 49° SE 16:11:21 10° NE visible
05 Dec - 17:45:26 10° WSW 17:50:06 54° NNW 17:54:29 10° NE visible
05 Dec - 19:29:50 10° WNW 19:33:57 32° N 19:37:54 10° ENE visible
05 Dec - 21:13:44 10° NW 21:17:57 39° NNE 21:22:04 10° E visible
05 Dec - 22:56:59 10° NW 23:01:22 77° SW 23:05:44 10° SE night (unlit)
06 Dec - 00:40:50 10° WNW 00:43:46 18° WSW 00:46:44 10° SSW night (unlit)
06 Dec - 15:27:39 10° S 15:32:08 37° SE 15:36:19 10° ENE daylight
06 Dec - 17:10:19 10° WSW 17:15:04 65° NW 17:19:32 10° NE visible
06 Dec - 18:54:37 10° WNW 18:58:49 33° N 19:02:49 10° NE visible
06 Dec - 20:38:43 10° NW 20:42:52 35° NNE 20:46:53 10° E visible
06 Dec - 22:22:01 10° NW 22:26:26 84° NE 22:30:48 10° SE night (unlit)
07 Dec - 00:05:33 10° WNW 00:09:03 24° WSW 00:12:35 10° S night (unlit)
07 Dec - 14:53:11 10° S 14:57:19 28° ESE 15:01:13 10° ENE daylight
07 Dec - 16:35:16 10° SW 16:40:06 80° NW 16:44:35 10° NE visible
07 Dec - 18:19:24 10° W 18:23:41 35° NNW 18:27:46 10° NE visible
07 Dec - 20:03:39 10° NW 20:07:43 33° N 20:11:41 10° ENE visible
07 Dec - 21:47:03 10° NW 21:51:27 67° NE 21:55:48 10° ESE visible
07 Dec - 23:30:24 10° WNW 23:34:17 32° WSW 23:38:11 10° S night (unlit)
08 Dec - 14:18:55 10° SSE 14:22:34 21° ESE 14:26:01 10° ENE daylight
08 Dec - 16:00:18 10° SW 16:05:08 82° SE 16:09:38 10° NE visible
08 Dec - 17:44:11 10° W 17:48:35 39° NNW 17:52:45 10° NE visible
08 Dec - 19:28:32 10° WNW 19:32:35 31° N 19:36:30 10° ENE visible
08 Dec - 21:12:05 10° NW 21:16:26 54° NNE 21:20:43 10° ESE visible
08 Dec - 22:55:19 10° NW 22:59:28 43° SW 23:03:37 10° SSE night (unlit)
09 Dec - 13:44:57 10° SSE 13:47:50 16° ESE 13:50:36 10° ENE daylight
09 Dec - 15:25:26 10° SSW 15:30:13 64° SE 15:34:40 10° NE daylight
09 Dec - 17:08:59 10° W 17:13:30 45° NNW 17:17:46 10° NE visible
09 Dec - 18:53:23 10° WNW 18:57:26 31° N 19:01:21 10° ENE visible
09 Dec - 20:37:06 10° NW 20:41:23 45° NNE 20:45:34 10° E visible
09 Dec - 22:20:18 10° NW 22:24:37 58° SW 22:28:54 10° SSE night (unlit)
10 Dec - 00:04:48 10° W 00:06:49 13° WSW 00:08:49 10° SW night (unlit)
10 Dec - 13:11:38 10° SE 13:13:09 11° ESE 13:14:38 10° E daylight
10 Dec - 14:50:40 10° SSW 14:55:19 48° SE 14:59:40 10° NE daylight
10 Dec - 16:33:49 10° WSW 16:38:27 53° NNW 16:42:47 10° NE visible
10 Dec - 18:18:12 10° WNW 18:22:17 31° N 18:26:14 10° ENE visible
10 Dec - 20:02:06 10° NW 20:06:18 39° NNE 20:10:24 10° E visible
10 Dec - 21:45:19 10° NW 21:49:42 77° SW 21:54:04 10° SE visible
10 Dec - 23:29:11 10° WNW 23:32:07 18° WSW 23:35:05 10° SSW night (unlit)
11 Dec - 14:16:03 10° S 14:20:28 37° SE 14:24:37 10° ENE daylight
11 Dec - 15:58:42 10° WSW 16:03:25 65° NW 16:07:50 10° NE visible
11 Dec - 17:43:00 10° WNW 17:47:08 33° N 17:51:08 10° NE visible
11 Dec - 19:27:04 10° NW 19:31:11 35° NNE 19:35:12 10° E visible
11 Dec - 21:10:21 10° NW 21:14:45 84° NE 21:19:08 10° SE visible
11 Dec - 22:53:53 10° WNW 22:57:23 24° WSW 23:00:55 10° S night (unlit)
12 Dec - 13:41:34 10° S 13:45:40 28° ESE 13:49:30 10° ENE daylight
12 Dec - 15:23:39 10° SW 15:28:25 80° NW 15:32:52 10° NE daylight
12 Dec - 17:07:46 10° W 17:12:00 35° NNW 17:16:04 10° NE visible
12 Dec - 18:51:59 10° NW 18:56:02 33° N 19:00:00 10° ENE visible
12 Dec - 20:35:23 10° NW 20:39:46 67° NE 20:44:07 10° ESE visible
12 Dec - 22:18:42 10° WNW 22:22:36 32° WSW 22:26:32 10° S night (unlit)
